User: anonymous   Login
Location: Mount Kobau Star Party
(49.1167°N, 119.7333°W)
Time: 02:27:12
(UTC-07:00)
Language:

TSX-5 - Orbit

View from above orbital plane
View from above orbital plane
View from above satellite
View from above satellite

Ground track
Ground track

The orbit data is extracted from the following two-line orbital elements,

1 26374U 00030A   17117.88410756 +.00001367 +00000-0 +12250-3 0  9991
2 26374 068.9294 272.4605 0651103 331.3708 025.3031 14.04922637849035
Epoch (UTC): 27 April 2017 21:13:06
Eccentricity: 0.0651103
inclination: 68.9294°
perigee height: 404 km
apogee height: 1349 km
right ascension of ascending node: 272.4605°
argument of perigee: 331.3708°
revolutions per day: 14.04922637
mean anomaly at epoch: 25.3031°
orbit number at epoch: 84903

The dashed part of the orbit path shows where the satellite is in the earth's shadow,  

DLR